Location: Boone Canyon
(38.3180°N, 119.2504°W)
Time: 17:24:40
(UTC+00:00)

Cosmos 1733 Rocket - Pass Details

Date: 18 September 2020
Orbit: 602 x 629 km, 82.5° (Epoch: 19 October)

Event Time Altitude Azimuth Distance (km) Brightness Sun altitude
Rises 13:09:56 0° 349° (NNW) 2,883 6.5 -7.1°
Reaches altitude 10° 13:12:11 10° 346° (NNW) 1,970 5.6 -6.6°
Maximum altitude 13:16:29 63° 265° (W) 680 3.0 -5.8°
Drops below altitude 10° 13:20:44 10° 185° (S) 1,943 5.5 -5.0°
Sets 13:22:56 0° 182° (S) 2,839 6.4 -4.5°
